1508580000.78,31482,14.0,73652.5,-0.95,-4.25,-4.57,0,*65
1508580001.98,31483,14.0,73616.3,-0.99,-4.05,-4.41,0,*6D
1508580003.19,31484,14.0,73600.5,-0.99,-3.67,-3.87,0,*64
1508580004.41,31485,14.0,73604.3,-0.99,-3.63,-3.79,0,*60
1508580005.61,31486,13.94,73622.8,-0.99,-3.75,-3.91,0,*62
1508580006.83,31487,14.0,73622.3,-0.99,-3.67,-3.79,0,*66
1508580008.05,31488,14.0,73632.8,-0.99,-3.55,-3.75,0,*64
1508580009.28,31489,14.0,73630.3,-0.99,-3.43,-3.63,0,*65
1508580010.5,31490,14.0,73664.8,-0.97,-3.35,-3.39,0,*6D
1508580011.69,31491,14.0,73662.5,-0.99,-3.31,-3.31,0,*6E
1508580012.89,31492,14.0,73658.3,-0.99,-3.27,-3.35,0,*6E
1508580014.1,31493,14.0,73660.0,-0.97,-3.31,-3.35,0,*66
1508580015.34,31494,14.0,73652.5,-0.97,-3.39,-3.51,0,*6B
1508580016.61,31495,14.0,73668.5,-0.97,-3.47,-3.59,0,*6B
1508580017.84,31496,14.0,73666.0,-0.97,-3.71,-3.83,0,*6A
1508580019.06,31497,14.0,73666.5,-0.99,-3.67,-3.87,0,*66
1508580020.27,31498,14.0,73666.0,-0.99,-3.67,-3.87,0,*69
1508580021.48,31499,14.0,73678.0,-0.99,-3.75,-3.91,0,*6C
1508580022.7,31500,14.0,73664.5,-0.99,-4.01,-4.29,0,*6D
1508580023.89,31501,14.0,73660.8,-0.99,-4.13,-4.45,0,*65
1508580025.11,31502,14.0,73656.5,-0.99,-4.01,-4.17,0,*62
1508580026.31,31503,14.0,73628.8,-0.99,-3.79,-3.91,0,*62
1508580027.58,31504,14.0,73634.3,-1.01,-3.51,-3.67,0,*56
1508580028.85,31505,14.0,73622.0,-1.01,-3.43,-3.51,0,*51
1508580030.11,31506,13.94,73636.0,-1.01,-3.43,-3.63,0,*53
1508580031.33,31507,13.94,73640.5,-0.99,-3.35,-3.43,0,*61
1508580032.52,31508,14.0,73646.5,-0.99,-3.23,-3.35,0,*68
1508580033.7,31509,14.0,73670.0,-0.99,-3.23,-3.35,0,*69
1508580034.94,31510,14.0,73650.8,-0.99,-3.43,-3.63,0,*64
1508580036.18,31511,14.0,73664.5,-0.97,-3.59,-3.75,0,*67
1508580037.38,31512,14.0,73644.3,-0.99,-3.75,-3.87,0,*69
1508580038.58,31513,14.0,73638.5,-0.99,-3.91,-4.05,0,*6F
1508580039.81,31514,13.94,73634.5,-1.01,-4.05,-4.41,0,*52
1508580041.04,31515,14.0,73628.0,-1.03,-3.79,-4.01,0,*59
1508580042.3,31516,13.94,73640.8,-1.01,-3.43,-3.67,0,*56
1508580043.55,31517,14.0,73648.3,-1.01,-3.35,-3.55,0,*57
1508580044.79,31518,14.0,73664.0,-1.01,-3.35,-3.51,0,*5C
1508580046.01,31519,14.0,73672.3,-0.99,-3.39,-3.51,0,*61
1508580047.25,31520,13.94,73652.0,-0.99,-3.51,-3.63,0,*64
1508580048.47,31521,14.0,73660.3,-0.99,-3.63,-3.75,0,*63
1508580049.68,31522,14.0,73664.0,-0.99,-3.63,-3.87,0,*6D
1508580050.91,31523,14.0,73608.5,-0.99,-3.75,-4.01,0,*62
1508580052.13,31524,14.0,73634.3,-0.99,-4.01,-4.05,0,*65
1508580053.37,31525,14.0,73636.5,-1.01,-3.75,-3.91,0,*5A
1508580054.57,31526,14.0,73650.0,-1.03,-3.79,-3.91,0,*57
1508580055.82,31527,14.0,73636.5,-1.01,-3.63,-3.83,0,*5C
1508580057.05,31528,14.0,73648.5,-1.03,-3.67,-3.91,0,*56
1508580058.25,31529,14.0,73630.8,-1.03,-3.79,-3.95,0,*5C
1508580059.47,31530,14.0,73636.0,-1.03,-3.71,-3.91,0,*58
1508580060.7,31531,14.0,73646.0,-1.03,-3.71,-3.91,0,*59
1508580061.92,31532,14.0,73636.3,-1.03,-3.71,-3.91,0,*5A
1508580063.12,31533,14.0,73646.8,-1.03,-3.83,-3.95,0,*52
1508580064.34,31534,14.0,73646.5,-1.03,-3.71,-3.83,0,*5F
1508580065.58,31535,14.0,73644.3,-1.03,-3.71,-3.71,0,*53
1508580066.82,31536,14.0,73636.3,-1.03,-3.67,-3.71,0,*57
1508580068.09,31537,14.0,73662.0,-1.05,-3.59,-3.71,0,*5D
1508580069.34,31538,14.0,73650.8,-1.05,-3.59,-3.79,0,*5A
1508580070.59,31539,14.0,73648.8,-1.05,-3.59,-3.79,0,*5B
1508580071.84,31540,14.0,73654.3,-1.05,-3.59,-3.79,0,*55
1508580073.11,31541,14.0,73662.8,-1.05,-3.59,-3.71,0,*5C
1508580074.35,31542,14.0,73664.5,-1.07,-3.63,-3.71,0,*54
1508580075.61,31543,14.0,73672.0,-1.05,-3.55,-3.71,0,*52
1508580076.86,31544,14.0,73662.0,-1.07,-3.51,-3.71,0,*53
1508580078.12,31545,13.94,73666.5,-1.05,-3.55,-3.67,0,*53
1508580079.37,31546,14.0,73666.5,-1.05,-3.59,-3.79,0,*53
1508580080.64,31547,14.0,73664.3,-1.05,-3.59,-3.71,0,*5A
1508580081.9,31548,14.0,73664.0,-1.05,-3.59,-3.71,0,*55
1508580083.15,31549,14.0,73666.8,-1.05,-3.67,-3.79,0,*51
1508580084.4,31550,14.0,73652.0,-1.05,-3.59,-3.79,0,*54
1508580085.63,31551,14.0,73654.5,-1.05,-3.79,-3.91,0,*51
1508580086.86,31552,14.0,73676.3,-1.05,-3.79,-3.95,0,*56
1508580088.11,31553,14.0,73684.5,-1.05,-3.71,-3.83,0,*58
1508580089.36,31554,14.0,73682.3,-1.05,-3.59,-3.79,0,*50
1508580090.62,31555,14.0,73682.0,-1.05,-3.55,-3.71,0,*55
1508580091.86,31556,14.0,73676.8,-1.03,-3.55,-3.71,0,*50
1508580093.12,31557,14.0,73682.3,-1.05,-3.47,-3.71,0,*54
1508580094.38,31558,14.0,73676.8,-1.05,-3.55,-3.71,0,*58
1508580095.63,31559,14.0,73698.3,-1.05,-3.55,-3.79,0,*51
1508580096.88,31560,14.0,73656.5,-1.05,-3.59,-3.79,0,*57
1508580098.14,31561,14.0,73660.8,-1.05,-3.55,-3.71,0,*52
1508580099.39,31562,14.0,73692.0,-1.05,-3.67,-3.79,0,*58
1508580100.63,31563,14.0,73644.3,-1.03,-3.55,-3.71,0,*56
1508580101.85,31564,14.0,73672.5,-1.03,-3.67,-3.79,0,*58
1508580103.07,31565,14.0,73676.3,-1.03,-3.67,-3.79,0,*59
1508580104.31,31566,14.0,73666.5,-1.03,-3.55,-3.71,0,*53
1508580105.58,31567,14.0,73668.0,-1.05,-3.43,-3.67,0,*54
1508580106.82,31568,14.0,73680.8,-1.03,-3.43,-3.47,0,*5F
1508580108.03,31569,14.0,73692.0,-1.03,-3.39,-3.63,0,*55
1508580109.3,31570,14.0,73688.5,-1.05,-3.47,-3.67,0,*56
1508580110.57,31571,14.0,73690.5,-1.01,-3.43,-3.55,0,*56
1508580111.8,31572,14.0,73686.3,-1.03,-3.43,-3.55,0,*57
1508580113.03,31573,14.0,73684.0,-1.03,-3.39,-3.59,0,*57
1508580114.27,31574,14.0,73684.5,-1.03,-3.43,-3.59,0,*5D
1508580115.52,31575,14.0,73686.0,-1.03,-3.47,-3.67,0,*55
1508580116.77,31576,14.0,73682.8,-1.03,-3.47,-3.59,0,*5B
1508580118.03,31577,14.0,73642.3,-1.01,-3.43,-3.63,0,*55
1508580119.27,31578,14.0,73646.5,-1.03,-3.55,-3.71,0,*5C
1508580120.49,31579,14.0,73656.3,-1.03,-3.71,-3.95,0,*51
1508580121.71,31580,14.0,73662.3,-1.03,-3.71,-3.95,0,*57
1508580122.93,31581,14.0,73656.5,-1.03,-3.67,-3.83,0,*56
1508580124.15,31582,14.0,73644.3,-1.03,-3.55,-3.79,0,*51
1508580125.38,31583,14.0,73634.3,-1.03,-3.59,-3.79,0,*5C
1508580126.6,31584,14.0,73640.8,-1.03,-3.67,-3.79,0,*56
1508580127.85,31585,14.0,73650.0,-1.03,-3.59,-3.71,0,*52
1508580129.09,31586,14.0,73648.5,-1.03,-3.59,-3.67,0,*56
1508580130.36,31587,14.0,73672.8,-1.05,-3.47,-3.59,0,*53
1508580131.6,31588,14.0,73672.8,-1.05,-3.39,-3.55,0,*59
1508580132.84,31589,14.0,73658.0,-1.03,-3.43,-3.67,0,*52
1508580134.09,31590,14.0,73654.5,-1.03,-3.43,-3.59,0,*57
1508580135.33,31591,14.0,73646.5,-1.03,-3.43,-3.59,0,*56
1508580136.58,31592,14.0,73674.5,-1.03,-3.47,-3.59,0,*51
1508580137.85,31593,14.0,73670.0,-1.05,-3.43,-3.55,0,*5E
1508580139.11,31594,14.0,73660.8,-1.05,-3.47,-3.71,0,*5B
1508580140.36,31595,14.0,73670.0,-1.05,-3.55,-3.79,0,*51
1508580141.6,31596,14.0,73634.3,-1.05,-3.55,-3.79,0,*52
1508580142.83,31597,14.0,73630.5,-1.05,-3.79,-4.05,0,*51
1508580144.08,31598,14.0,73654.8,-1.05,-3.71,-3.95,0,*58
1508580145.3,31599,14.0,73656.8,-1.07,-3.71,-3.83,0,*5C
1508580146.54,31600,14.0,73662.3,-1.07,-3.51,-3.71,0,*50
1508580147.79,31601,14.0,73642.8,-1.05,-3.39,-3.55,0,*5B
1508580149.03,31602,14.0,73642.5,-1.07,-3.43,-3.51,0,*53
1508580150.3,31603,14.0,73652.8,-1.05,-3.43,-3.59,0,*58
1508580151.54,31604,13.94,73632.8,-1.07,-3.43,-3.63,0,*54
1508580152.81,31605,14.0,73648.8,-1.05,-3.43,-3.59,0,*5E
1508580154.08,31606,14.0,73640.5,-1.05,-3.43,-3.59,0,*5D
1508580155.33,31607,14.0,73640.0,-1.07,-3.43,-3.59,0,*5E
1508580156.57,31608,14.0,73628.0,-1.05,-3.39,-3.47,0,*51
1508580157.82,31609,14.0,73626.8,-1.05,-3.31,-3.43,0,*5C
1508580159.04,31610,14.0,73636.0,-1.05,-3.27,-3.39,0,*5E
1508580160.27,31611,14.0,73634.8,-1.05,-3.27,-3.39,0,*5F
1508580161.49,31612,14.0,73656.5,-1.05,-3.27,-3.39,0,*5C
1508580162.69,31613,14.0,73670.3,-1.03,-3.27,-3.27,0,*54
1508580163.89,31614,14.0,73680.3,-1.03,-3.27,-3.31,0,*54
1508580165.12,31615,14.0,73682.8,-1.01,-3.27,-3.27,0,*50
1508580166.34,31616,14.0,73664.8,-1.03,-3.39,-3.47,0,*58
1508580167.58,31617,14.0,73652.5,-1.03,-3.43,-3.55,0,*57
1508580168.82,31618,14.0,73668.3,-1.01,-3.39,-3.51,0,*53
1508580170.07,31619,14.0,73668.3,-1.01,-3.35,-3.51,0,*5E
1508580171.31,31620,14.0,73648.0,-1.03,-3.43,-3.55,0,*53
1508580172.53,31621,14.0,73660.3,-1.03,-3.39,-3.55,0,*5F
1508580173.75,31622,14.0,73650.5,-1.03,-3.31,-3.59,0,*58
1508580174.97,31623,14.0,73648.3,-1.03,-3.39,-3.59,0,*51
1508580176.19,31624,14.0,73660.5,-1.01,-3.23,-3.39,0,*59
1508580177.44,31625,14.0,73630.8,-1.01,-3.39,-3.55,0,*59
1508580178.68,31626,14.0,73610.3,-1.03,-3.43,-3.67,0,*54
1508580179.92,31627,14.0,73634.8,-1.03,-3.47,-3.67,0,*51
1508580181.14,31628,14.0,73654.0,-1.03,-3.47,-3.79,0,*51
1508580182.39,31629,14.0,73644.3,-1.03,-3.43,-3.59,0,*56
1508580183.61,31630,14.0,73660.0,-1.03,-3.39,-3.67,0,*5E
1508580184.83,31631,14.0,73672.3,-1.03,-3.39,-3.67,0,*5F
1508580186.07,31632,14.0,73682.3,-1.03,-3.43,-3.59,0,*5C
1508580187.29,31633,14.0,73666.8,-1.03,-3.39,-3.67,0,*5D
1508580188.53,31634,14.0,73664.5,-1.03,-3.43,-3.67,0,*57
1508580189.78,31635,14.0,73656.0,-1.03,-3.43,-3.59,0,*5B
1508580191.0,31636,14.0,73660.0,-1.03,-3.47,-3.79,0,*5E
1508580192.23,31637,14.0,73660.8,-1.03,-3.47,-3.79,0,*5F
1508580193.45,31638,14.0,73664.3,-1.03,-3.59,-3.83,0,*5A
1508580194.67,31639,14.0,73670.0,-1.03,-3.67,-3.91,0,*55
1508580195.9,31640,14.0,73688.0,-1.03,-3.59,-3.91,0,*56
1508580197.13,31641,14.0,73674.3,-1.03,-3.47,-3.79,0,*5E
1508580198.37,31642,14.0,73686.3,-1.03,-3.47,-3.71,0,*55
1508580199.61,31643,14.0,73664.8,-1.03,-3.55,-3.67,0,*50
1508580200.83,31644,14.0,73664.8,-1.03,-3.59,-3.83,0,*51
1508580202.08,31645,14.0,73668.0,-1.01,-3.55,-3.75,0,*57
1508580203.32,31646,14.0,73668.0,-1.03,-3.55,-3.71,0,*52
1508580204.59,31647,14.0,73670.3,-1.05,-3.47,-3.71,0,*56
1508580205.83,31648,14.0,73672.8,-1.03,-3.47,-3.67,0,*58
1508580207.08,31649,14.0,73666.0,-1.01,-3.51,-3.75,0,*5F
1508580208.32,31650,14.0,73662.8,-1.03,-3.47,-3.71,0,*56
1508580209.56,31651,14.0,73648.8,-1.03,-3.47,-3.71,0,*57
1508580210.81,31652,14.0,73644.8,-1.03,-3.47,-3.59,0,*5E
1508580212.04,31653,14.0,73638.0,-1.03,-3.39,-3.59,0,*56
1508580213.25,31654,14.0,73630.0,-1.01,-3.23,-3.39,0,*5E
1508580214.46,31655,14.0,73640.8,-1.03,-3.27,-3.39,0,*59
1508580215.68,31656,14.0,73652.3,-1.01,-3.15,-3.35,0,*55
1508580216.91,31657,14.0,73658.8,-1.01,-3.15,-3.35,0,*54
1508580218.13,31658,14.0,73662.8,-1.01,-3.15,-3.39,0,*57
1508580219.32,31659,14.0,73664.5,-0.99,-3.23,-3.35,0,*6F
1508580220.51,31660,14.0,73666.5,-0.99,-3.23,-3.35,0,*65
1508580221.73,31661,14.0,73682.3,-0.97,-3.23,-3.47,0,*6F
1508580222.95,31662,14.0,73676.3,-0.95,-3.27,-3.47,0,*6A
1508580224.17,31663,14.0,73658.3,-0.99,-3.35,-3.59,0,*6B
1508580225.38,31664,14.0,73652.8,-0.99,-3.51,-3.87,0,*6D
1508580226.63,31665,14.0,73654.5,-0.97,-3.51,-3.75,0,*6F
1508580227.87,31666,14.0,73646.3,-0.97,-3.47,-3.87,0,*66
1508580229.11,31667,14.0,73638.8,-0.97,-3.59,-3.87,0,*68
1508580230.33,31668,14.0,73638.5,-0.99,-3.87,-4.01,0,*63
1508580231.52,31669,14.0,73646.3,-0.99,-3.87,-4.13,0,*61
1508580232.72,31670,14.0,73636.3,-0.99,-3.79,-4.05,0,*6F
1508580233.96,31671,14.0,73652.8,-0.97,-3.71,-3.83,0,*61
1508580235.18,31672,14.0,73650.8,-0.99,-3.67,-3.79,0,*6E
1508580236.39,31673,14.0,73652.0,-0.99,-3.67,-3.87,0,*6E
1508580237.59,31674,14.0,73646.5,-0.99,-3.75,-3.87,0,*6A
1508580238.8,31675,14.0,73644.8,-0.99,-3.67,-3.87,0,*68
1508580240.02,31676,14.0,73652.5,-0.99,-3.51,-3.79,0,*6F
1508580241.27,31677,14.0,73650.8,-1.01,-3.55,-3.75,0,*56
1508580242.49,31678,14.0,73642.3,-0.99,-3.63,-3.75,0,*6C
1508580243.74,31679,14.0,73648.3,-1.01,-3.55,-3.79,0,*54
1508580244.99,31680,13.94,73640.8,-1.01,-3.55,-3.79,0,*52
1508580246.24,31681,14.0,73642.0,-1.01,-3.55,-3.79,0,*53
1508580247.49,31682,14.0,73658.3,-1.01,-3.55,-3.79,0,*50
1508580248.74,31683,14.0,73670.3,-1.01,-3.63,-3.79,0,*54
1508580249.98,31684,14.0,73672.3,-1.01,-3.55,-3.87,0,*57
1508580251.23,31685,14.0,73682.5,-1.01,-3.55,-3.79,0,*57
1508580252.48,31686,14.0,73674.3,-1.01,-3.63,-3.87,0,*50
1508580253.73,31687,13.94,73660.8,-1.01,-3.55,-3.79,0,*55
1508580254.98,31688,14.0,73666.3,-1.01,-3.51,-3.79,0,*5E
1508580256.23,31689,14.0,73668.0,-1.01,-3.51,-3.75,0,*53
1508580257.45,31690,14.0,73670.3,-0.99,-3.51,-3.75,0,*6B
1508580258.67,31691,14.0,73658.8,-0.99,-3.51,-3.75,0,*6A
1508580259.9,31692,14.0,73652.0,-0.99,-3.63,-3.79,0,*64
1508580261.11,31693,14.0,73652.5,-0.99,-3.55,-3.87,0,*61
1508580262.36,31694,14.0,73652.8,-1.01,-3.63,-3.79,0,*52
1508580263.58,31695,14.0,73668.0,-0.99,-3.63,-3.79,0,*63
1508580264.8,31696,14.0,73664.0,-0.99,-3.63,-3.75,0,*6C
1508580266.04,31697,14.0,73658.3,-0.99,-3.55,-3.67,0,*6B
1508580267.25,31698,14.0,73652.3,-0.99,-3.35,-3.55,0,*63
1508580268.46,31699,14.0,73652.3,-0.99,-3.35,-3.51,0,*66
1508580269.68,31700,14.0,73652.3,-0.97,-3.35,-3.39,0,*67
1508580270.92,31701,14.0,73654.3,-0.97,-3.35,-3.51,0,*68
1508580272.16,31702,14.0,73662.5,-0.97,-3.31,-3.51,0,*6F
1508580273.37,31703,14.0,73656.8,-0.97,-3.31,-3.39,0,*60
1508580274.59,31704,14.0,73658.5,-0.97,-3.31,-3.35,0,*6B
1508580275.78,31705,14.0,73666.8,-0.95,-3.27,-3.31,0,*6B
1508580277.0,31706,14.0,73658.8,-0.95,-3.35,-3.43,0,*6E
1508580278.23,31707,14.0,73670.3,-0.95,-3.43,-3.55,0,*69
1508580279.47,31708,14.0,73674.8,-0.95,-3.43,-3.67,0,*67
1508580280.71,31709,14.0,73670.8,-0.95,-3.43,-3.59,0,*6B
1508580281.94,31710,14.0,73668.8,-0.95,-3.47,-3.71,0,*6D
1508580283.18,31711,14.0,73648.3,-0.95,-3.47,-3.71,0,*6C
1508580284.41,31712,13.94,73644.0,-0.95,-3.47,-3.71,0,*6F
1508580285.64,31713,14.0,73608.3,-0.95,-3.59,-3.91,0,*6F
1508580286.88,31714,14.0,73594.8,-0.97,-3.63,-3.95,0,*67
1508580288.1,31715,14.0,73630.3,-0.99,-3.79,-4.01,0,*69
1508580289.34,31716,14.0,73628.8,-0.97,-3.71,-3.95,0,*66
1508580290.54,31717,14.0,73636.8,-0.99,-3.79,-4.05,0,*6F
1508580291.77,31718,13.94,73642.0,-0.99,-3.79,-4.01,0,*64
1508580292.97,31719,14.0,73652.3,-0.99,-3.79,-3.91,0,*6B
1508580294.21,31720,14.0,73652.0,-0.97,-3.71,-3.95,0,*63
1508580295.43,31721,14.0,73662.3,-0.99,-3.75,-4.01,0,*62
1508580296.67,31722,14.0,73654.5,-0.97,-3.71,-3.95,0,*61
1508580297.91,31723,14.0,73658.5,-0.97,-3.71,-3.87,0,*63
1508580299.14,31724,14.0,73664.3,-0.97,-3.71,-3.95,0,*67
1508580300.34,31725,14.0,73652.3,-0.99,-3.87,-4.05,0,*6F
1508580301.53,31726,14.0,73644.8,-0.99,-3.87,-4.05,0,*6C
1508580302.75,31727,14.0,73636.5,-0.97,-3.75,-3.87,0,*63
1508580303.99,31728,14.0,73630.0,-0.97,-3.71,-3.83,0,*6C
1508580305.19,31729,14.0,73640.0,-0.99,-3.75,-3.91,0,*64
1508580306.4,31730,14.0,73648.5,-0.99,-3.75,-3.91,0,*6C
1508580307.62,31731,14.0,73648.0,-0.99,-3.79,-4.01,0,*6F
1508580308.86,31732,14.0,73634.3,-0.97,-3.71,-3.87,0,*63
1508580310.07,31733,14.0,73652.8,-0.99,-3.67,-3.87,0,*6B
1508580311.29,31734,14.0,73656.8,-0.99,-3.67,-3.87,0,*6C
1508580312.52,31735,14.0,73668.0,-0.97,-3.71,-3.95,0,*67
1508580313.74,31736,14.0,73654.0,-0.99,-3.67,-3.91,0,*69
1508580314.94,31737,14.0,73660.5,-0.99,-3.75,-3.79,0,*6D
1508580316.16,31738,13.94,73654.3,-0.99,-3.67,-3.79,0,*61
1508580317.38,31739,14.0,73650.3,-0.99,-3.63,-3.87,0,*65
1508580318.6,31740,14.0,73646.8,-0.99,-3.63,-3.75,0,*66
1508580319.86,31741,14.0,73630.3,-0.97,-3.47,-3.71,0,*6B
1508580321.12,31742,13.94,73630.8,-0.97,-3.47,-3.63,0,*6B
1508580322.34,31743,14.0,73622.8,-0.99,-3.43,-3.75,0,*67
1508580323.56,31744,14.0,73616.8,-0.99,-3.51,-3.79,0,*6F
1508580324.77,31745,14.0,73630.8,-0.99,-3.51,-3.87,0,*6F
1508580325.99,31746,14.0,73646.8,-0.99,-3.55,-3.79,0,*69
1508580327.2,31747,14.0,73662.3,-0.99,-3.55,-3.87,0,*69
1508580328.42,31748,14.0,73656.3,-0.99,-3.55,-3.79,0,*67
1508580329.66,31749,14.0,73662.0,-0.99,-3.51,-3.67,0,*6D
1508580330.92,31750,14.0,73662.0,-0.97,-3.47,-3.71,0,*6B
1508580332.14,31751,14.0,73654.5,-0.99,-3.63,-3.79,0,*6A
1508580333.38,31752,14.0,73654.0,-0.97,-3.59,-3.75,0,*62
1508580334.6,31753,13.94,73656.0,-0.99,-3.55,-3.79,0,*6D
1508580335.84,31754,14.0,73660.8,-0.99,-3.51,-3.67,0,*61
1508580337.1,31755,14.0,73652.0,-0.97,-3.47,-3.71,0,*6E
1508580338.34,31756,14.0,73640.0,-0.97,-3.59,-3.75,0,*66
1508580339.6,31757,14.0,73642.0,-0.97,-3.59,-3.71,0,*63
1508580340.86,31758,13.94,73638.5,-0.97,-3.47,-3.63,0,*60
1508580342.12,31759,14.0,73640.3,-0.97,-3.47,-3.63,0,*61
1508580343.36,31760,13.94,73632.0,-0.97,-3.39,-3.59,0,*6B
1508580344.6,31761,14.0,73638.5,-0.97,-3.35,-3.51,0,*6E
1508580345.82,31762,14.0,73646.0,-0.97,-3.35,-3.39,0,*63
1508580347.04,31763,13.94,73648.5,-0.97,-3.35,-3.39,0,*62
1508580348.26,31764,13.94,73652.0,-0.93,-3.27,-3.35,0,*6E
1508580349.47,31765,14.0,73666.5,-0.93,-3.19,-3.31,0,*66
1508580350.68,31766,14.0,73668.8,-0.93,-3.15,-3.31,0,*69
1508580351.89,31767,14.0,73664.3,-0.93,-3.19,-3.31,0,*64
1508580353.11,31768,14.0,73648.8,-0.93,-3.19,-3.27,0,*6C
1508580354.32,31769,13.94,73654.8,-0.93,-3.19,-3.35,0,*6E
1508580355.51,31770,14.0,73662.3,-0.91,-3.27,-3.39,0,*65
1508580356.7,31771,13.94,73642.5,-0.91,-3.23,-3.31,0,*68
1508580357.88,31772,14.0,73654.8,-0.91,-3.15,-3.23,0,*6D
1508580359.09,31773,14.0,73658.8,-0.89,-3.15,-3.15,0,*60
1508580360.28,31774,14.0,73654.8,-0.91,-3.11,-3.15,0,*6A
1508580361.49,31775,14.0,73652.3,-0.89,-3.15,-3.15,0,*66
1508580362.7,31776,13.94,73650.3,-0.89,-3.15,-3.23,0,*60
1508580363.9,31777,14.0,73678.0,-0.85,-3.07,-3.19,0,*67
1508580365.12,31778,14.0,73674.5,-0.89,-3.15,-3.27,0,*6A
1508580366.32,31779,14.0,73682.0,-0.85,-3.07,-3.23,0,*60
1508580367.54,31780,14.0,73680.0,-0.83,-3.07,-3.31,0,*63
1508580368.77,31781,13.94,73672.3,-0.85,-3.19,-3.47,0,*6A
1508580369.98,31782,14.0,73656.8,-0.85,-3.19,-3.27,0,*6F
1508580371.18,31783,14.0,73642.0,-0.85,-3.19,-3.23,0,*6A
1508580372.4,31784,14.0,73618.8,-0.85,-3.19,-3.27,0,*69
1508580373.62,31785,13.94,73618.3,-0.83,-3.15,-3.31,0,*65
1508580374.85,31786,14.0,73642.3,-0.85,-3.35,-3.51,0,*64
1508580376.09,31787,13.94,73668.0,-0.85,-3.27,-3.51,0,*66
1508580377.33,31788,14.0,73664.3,-0.83,-3.35,-3.55,0,*68
1508580378.56,31789,14.0,73678.3,-0.85,-3.35,-3.47,0,*6C
1508580379.81,31790,14.0,73684.0,-0.83,-3.35,-3.59,0,*6D
1508580381.04,31791,13.94,73662.8,-0.85,-3.59,-3.83,0,*67
1508580382.29,31792,14.0,73678.3,-0.83,-3.71,-3.91,0,*6B
1508580383.52,31793,13.94,73666.3,-0.85,-3.71,-3.87,0,*6B
1508580384.76,31794,13.94,73670.5,-0.85,-3.71,-3.83,0,*68
1508580386.0,31795,14.0,73668.8,-0.89,-3.75,-4.01,0,*6C
1508580387.25,31796,14.0,73662.5,-0.89,-3.75,-4.01,0,*6F
1508580388.49,31797,14.0,73644.0,-0.85,-3.75,-4.01,0,*62
1508580389.71,31798,13.94,73624.8,-0.89,-3.79,-3.91,0,*63
1508580390.91,31799,14.0,73616.0,-0.91,-3.79,-3.91,0,*6B
1508580392.12,31800,14.0,73634.0,-0.91,-3.75,-3.91,0,*68
1508580393.32,31801,13.94,73626.8,-0.91,-3.75,-3.91,0,*69
1508580394.54,31802,13.94,73628.3,-0.89,-3.75,-3.91,0,*63
1508580395.75,31803,14.0,73624.5,-0.91,-3.67,-3.87,0,*6F
1508580396.97,31804,13.94,73630.3,-0.91,-3.55,-3.79,0,*68
1508580398.23,31805,13.94,73638.3,-0.89,-3.51,-3.63,0,*6F
1508580399.44,31806,13.94,73644.0,-0.91,-3.39,-3.55,0,*6E
1508580400.65,31807,13.94,73646.5,-0.91,-3.31,-3.55,0,*67
1508580401.86,31808,13.94,73652.3,-0.91,-3.31,-3.43,0,*6F
1508580403.08,31809,14.0,73666.5,-0.91,-3.31,-3.43,0,*6E
1508580404.33,31810,13.94,73672.5,-0.89,-3.43,-3.63,0,*68
1508580405.55,31811,13.94,73678.3,-0.89,-3.79,-3.87,0,*6A
1508580406.77,31812,13.94,73672.3,-0.91,-3.87,-4.01,0,*68
1508580407.99,31813,13.94,73668.5,-0.91,-3.79,-4.01,0,*68
1508580409.22,31814,13.94,73658.3,-0.91,-3.79,-4.01,0,*6F
1508580410.41,31815,13.94,73640.8,-0.91,-3.87,-4.05,0,*6B
1508580411.62,31816,13.94,73632.8,-0.91,-3.91,-4.21,0,*69
1508580412.84,31817,13.94,73632.0,-0.93,-3.79,-3.95,0,*64
1508580414.08,31818,13.94,73624.8,-0.93,-3.67,-3.83,0,*63
1508580415.3,31819,13.94,73642.0,-0.91,-3.63,-3.75,0,*6D
1508580416.52,31820,13.94,73656.8,-0.91,-3.63,-3.75,0,*67
1508580417.72,31821,13.94,73660.3,-0.91,-3.75,-3.87,0,*6C
1508580418.93,31822,13.94,73674.8,-0.91,-3.55,-3.75,0,*60
1508580420.15,31823,13.94,73680.8,-0.91,-3.63,-3.75,0,*64
1508580421.39,31824,13.94,73674.8,-0.89,-3.67,-3.87,0,*63
1508580422.59,31825,13.94,73670.0,-0.91,-3.75,-3.79,0,*69
1508580423.79,31826,13.94,73670.3,-0.91,-3.75,-3.87,0,*6B
1508580425.0,31827,13.94,73668.5,-0.91,-3.67,-3.79,0,*68
1508580426.22,31828,13.94,73660.5,-0.91,-3.67,-3.75,0,*6B
1508580427.46,31829,13.94,73644.3,-0.93,-3.71,-3.91,0,*65
1508580428.7,31830,13.94,73650.8,-0.93,-3.71,-3.91,0,*6D
1508580429.94,31831,13.94,73640.5,-0.93,-3.59,-3.83,0,*65
1508580431.2,31832,13.94,73636.3,-0.93,-3.43,-3.67,0,*67
1508580432.46,31833,13.94,73640.8,-0.93,-3.43,-3.67,0,*66
1508580433.72,31834,13.94,73618.3,-0.93,-3.47,-3.71,0,*62
1508580434.93,31835,13.94,73612.3,-0.91,-3.55,-3.79,0,*6A
1508580436.17,31836,13.94,73620.3,-0.93,-3.71,-3.91,0,*6B
1508580437.41,31837,13.94,73630.3,-0.93,-3.71,-3.91,0,*6A
1508580438.66,31838,13.94,73620.0,-0.93,-3.67,-3.91,0,*62
1508580439.88,31839,13.94,73612.8,-0.93,-3.79,-3.95,0,*68
1508580441.07,31840,13.94,73616.8,-0.95,-3.79,-3.95,0,*60
1508580442.32,31841,13.94,73634.3,-0.93,-3.71,-3.91,0,*6B
1508580443.53,31842,13.94,73646.8,-0.95,-3.71,-3.91,0,*6E
1508580444.75,31843,13.94,73652.8,-0.95,-3.59,-3.91,0,*65
1508580445.97,31844,13.94,73648.5,-0.95,-3.67,-3.91,0,*6F
1508580447.19,31845,13.94,73652.5,-0.95,-3.71,-3.91,0,*69
1508580448.39,31846,13.94,73658.0,-0.95,-3.79,-3.91,0,*62
1508580449.61,31847,13.94,73650.5,-0.95,-3.71,-3.91,0,*6B
1508580450.85,31848,14.0,73656.0,-0.93,-3.71,-3.91,0,*62
1508580452.07,31849,13.94,73652.3,-0.95,-3.71,-3.91,0,*65
1508580453.28,31850,13.94,73648.5,-0.95,-3.71,-3.83,0,*6E
1508580454.5,31851,13.94,73636.0,-0.93,-3.79,-3.95,0,*66
1508580455.7,31852,13.94,73642.3,-0.95,-3.83,-3.95,0,*66
1508580456.94,31853,13.94,73656.5,-0.95,-3.67,-3.71,0,*67
1508580458.18,31854,13.94,73664.8,-0.93,-3.59,-3.79,0,*63
1508580459.4,31855,13.94,73660.5,-0.95,-3.71,-3.91,0,*68
1508580460.6,31856,13.94,73656.8,-0.95,-3.79,-3.91,0,*63
1508580461.82,31857,13.94,73642.8,-0.95,-3.59,-3.83,0,*63
1508580463.01,31858,13.94,73660.8,-0.95,-3.79,-3.83,0,*6E
1508580464.23,31859,13.94,73662.8,-0.95,-3.71,-3.83,0,*67
1508580465.44,31860,13.94,73654.0,-0.95,-3.67,-3.83,0,*6A
1508580466.66,31861,13.94,73648.0,-0.95,-3.67,-3.91,0,*68
1508580467.88,31862,13.94,73656.3,-0.95,-3.67,-3.91,0,*6B
1508580469.12,31863,13.94,73668.3,-0.93,-3.67,-3.91,0,*6C
1508580470.34,31864,13.94,73668.8,-0.95,-3.59,-3.83,0,*63
1508580471.58,31865,13.94,73656.0,-0.97,-3.59,-3.83,0,*60
1508580472.82,31866,13.94,73656.5,-0.93,-3.67,-3.83,0,*6A
1508580474.04,31867,13.94,73656.3,-0.95,-3.71,-3.91,0,*69
1508580475.23,31868,13.94,73650.5,-0.95,-3.79,-3.95,0,*6A
1508580476.45,31869,13.94,73638.5,-0.95,-3.71,-3.91,0,*67
1508580477.67,31870,13.94,73620.3,-0.95,-3.59,-3.83,0,*66
1508580478.93,31871,13.94,73638.3,-0.93,-3.59,-3.71,0,*6C
1508580480.19,31872,13.94,73652.8,-0.93,-3.55,-3.71,0,*63
1508580481.45,31873,13.94,73650.3,-0.93,-3.43,-3.59,0,*6F
1508580482.69,31874,13.94,73660.8,-0.95,-3.55,-3.59,0,*69
1508580483.95,31875,13.94,73670.8,-0.93,-3.47,-3.67,0,*60
1508580485.21,31876,13.94,73664.5,-0.93,-3.47,-3.67,0,*63
1508580486.47,31877,13.94,73648.0,-0.93,-3.47,-3.67,0,*62
1508580487.72,31878,13.94,73640.0,-0.93,-3.55,-3.67,0,*6E
1508580488.98,31879,13.94,73638.5,-0.89,-3.51,-3.63,0,*64
1508580490.2,31880,13.94,73664.3,-0.91,-3.55,-3.75,0,*68
1508580491.42,31881,13.94,73644.8,-0.91,-3.63,-3.75,0,*6C
1508580492.64,31882,13.94,73658.8,-0.91,-3.63,-3.75,0,*6F
1508580493.86,31883,13.94,73654.8,-0.91,-3.63,-3.79,0,*62
1508580495.09,31884,13.94,73630.3,-0.93,-3.67,-3.83,0,*66
1508580496.34,31885,13.94,73636.5,-0.93,-3.59,-3.79,0,*6F
1508580497.6,31886,13.94,73626.3,-0.93,-3.55,-3.71,0,*68
1508580498.85,31887,13.94,73626.3,-0.93,-3.55,-3.71,0,*69
1508580500.07,31888,13.94,73606.3,-0.95,-3.55,-3.79,0,*68
1508580501.31,31889,13.94,73622.5,-0.93,-3.71,-3.91,0,*6F
1508580502.55,31890,13.94,73636.0,-0.93,-3.67,-3.83,0,*63
1508580503.79,31891,13.94,73616.5,-0.93,-3.59,-3.83,0,*6F
1508580505.03,31892,13.94,73634.3,-0.93,-3.67,-3.91,0,*62
1508580506.27,31893,13.94,73640.0,-0.93,-3.59,-3.91,0,*6E
1508580507.51,31894,13.94,73632.5,-0.93,-3.67,-3.91,0,*64
1508580508.73,31895,13.94,73632.3,-0.95,-3.67,-3.91,0,*63
1508580509.97,31896,13.94,73634.3,-0.93,-3.59,-3.83,0,*68
1508580511.19,31897,13.94,73628.8,-0.95,-3.71,-3.91,0,*66
1508580512.41,31898,13.94,73636.5,-0.95,-3.71,-3.91,0,*69
1508580513.63,31899,13.94,73634.5,-0.95,-3.59,-3.83,0,*61
1508580514.84,31900,13.94,73630.0,-0.95,-3.71,-3.95,0,*6D